Find ICEYE-X36

NORAD ID: 59103 Int'l Des: 2024-043 Owner: ICEUS Country: US Constellation: iceye operational
LEOCIRCULARRETROGRADESSO

当前视图

正在加载3D地球...

关于 ICEYE-X36

正在加载描述...

即将过境

Passes for default location (London). Set your location on the main map for personalized predictions.

高度历史

Loading altitude history...

两行轨道根数

1 59103U 24043F 26150.18788779 .00005773 00000-0 39267-3 0 9992
2 59103 97.8349 287.9461 0006401 34.6045 325.5597 15.06714555122437
Epoch: May 30, 2026 • Age: 9 hours

当前状态

高度 572.4 km
速度 7.57 km/s
星下点 -66.94°S, 147.56°W
发射日期 Mar 4, 2024
运行时间 2.2 years
类型 earth observation

技术详情

分类 Payload
质量 90.00 kg
干质量 89.00 kg
总质量 90.00 kg
长度 0.70 m
直径 0.50 m
跨度 3.25 m
形状 Box + pan
制造商 ICEUS
平台类型 ICEYE
阶段状态 In Orbit
所有者/国家 ICEUS/US

Most Searched